Location: St Paul
(33.4390°N, 83.7350°W)
Time: 19:53:28
(UTC-05:00)

Cosmos 1076 Rocket - Pass Details

Date: 06 October 2017
Orbit: 590 x 613 km, 82.5° (Epoch: 14 December)

Event Time Altitude Azimuth Distance (km) Brightness Sun altitude
Rises 20:35:00 0° 349° (NNW) 2,860 7.2 -18.1°
Reaches altitude 10° 20:37:15 10° 345° (NNW) 1,949 6.4 -18.5°
Maximum altitude 20:41:29 59° 266° (W) 694 4.1 -19.4°
Drops below altitude 10° 20:45:40 10° 187° (S) 1,922 6.1 -20.3°
Sets 20:47:52 0° 184° (S) 2,816 6.9 -20.7°
